Location: Mahannah Oil Field
(37.4664°N, 96.6003°W)
Time: 15:24:04
(UTC+00:00)

Vanguard 2 Rocket - Pass Details

Date: 27 January 2021
Orbit: 554 x 3325 km, 32.9° (Epoch: 06 March)

Event Time Altitude Azimuth Distance (km) Brightness Sun altitude
Rises 16:30:46 0° 191° (SSW) 7,220 12.1 26.6°
Reaches altitude 10° 16:38:18 10° 175° (S) 6,274 12.3 27.4°
Maximum altitude 16:49:36 18° 141° (SE) 5,356 12.9 28.6°
Drops below altitude 10° 16:59:31 10° 105° (ESE) 5,499 11.6 29.5°
Sets 17:05:12 0° 89° (E) 6,062 11.4 30.0°
